GW3496 Weather Reports


time (UTC)temp
C
wind
direction
speed
KPH
gust
KPH
rain 1hr
cm
rain 24hr
cm
rain mn
cm
humidity
%
barometer
mb
20260510160039 26 273 0.0 12.9 0.00 0.00 0.00 41 1011.8
20260510154539 26 235 8.0 16.1 0.00 0.00 0.00 41 1011.9
20260510153035 25 156 3.2 16.1 0.00 0.00 0.00 43 1012.0
20260510151545 25 173 4.8 16.1 0.00 0.00 0.00 43 1011.9
20260510150103 24 136 3.2 17.7 0.00 0.00 0.00 44 1012.0
20260510144540 24 232 3.2 11.3 0.00 0.00 0.00 44 1011.9
20260510143040 23 186 4.8 14.5 0.00 0.00 0.00 47 1011.8
20260510141544 23 140 3.2 12.9 0.00 0.00 0.00 48 1011.8
20260510140045 23 175 4.8 9.7 0.00 0.00 0.00 54 1011.6
20260510134539 22 184 0.0 1.6 0.00 0.00 0.00 53 1011.7
20260510133038 21 63 0.0 0.0 0.00 0.00 0.00 62 1011.6
20260510131541 21 146 0.0 0.0 0.00 0.00 0.00 60 1011.5
20260510130049 20 51 0.0 3.2 0.00 0.00 0.00 60 1011.3
20260510124559 19 309 0.0 4.8 0.00 0.00 0.00 64 1011.6
20260510123046 17 164 0.0 0.0 0.00 0.00 0.00 75 1011.4
20260510121538 16 218 0.0 0.0 0.00 0.00 0.00 80 1011.0
20260510120050 16 182 0.0 0.0 0.00 0.00 0.00 83 1011.0
20260510114552 15 182 0.0 0.0 0.00 0.00 0.00 86 1010.7
20260510113044 13 182 0.0 0.0 0.00 0.00 0.00 88 1010.5
20260510111601 13 182 0.0 0.0 0.00 0.00 0.00 88 1010.3
20260510110049 13 182 0.0 0.0 0.00 0.00 0.00 88 1010.1
20260510104547 12 182 0.0 0.0 0.00 0.00 0.00 88 1009.9
20260510103047 12 193 0.0 0.0 0.00 0.00 0.00 88 1009.7
20260510101544 12 182 0.0 0.0 0.00 0.00 0.00 87 1009.5
20260510100054 12 182 0.0 0.0 0.00 0.00 0.00 88 1009.4
20260510094559 13 332 0.0 0.0 0.00 0.00 0.00 88 1009.3
20260510093105 13 9 0.0 0.0 0.00 0.00 0.00 88 1009.1
20260510091550 13 9 0.0 0.0 0.00 0.00 0.00 88 1009.1
20260510090051 13 20 0.0 0.0 0.00 0.00 0.00 87 1008.8
20260510084546 13 309 0.0 0.0 0.00 0.00 0.00 87 1008.8
20260510083053 13 346 3.2 6.4 0.00 0.00 0.00 86 1008.8
20260510081548 14 230 1.6 6.4 0.00 0.00 0.00 86 1008.7
20260510080046 14 274 0.0 0.0 0.00 0.00 0.00 85 1008.5
20260510074552 14 126 0.0 3.2 0.00 0.00 0.00 84 1008.4
20260510073051 14 272 0.0 0.0 0.00 0.00 0.00 83 1008.2
20260510071546 15 251 0.0 0.0 0.00 0.00 0.00 82 1008.3
20260510070040 15 108 0.0 0.0 0.00 0.00 0.00 81 1008.1
20260510064943 15 190 0.0 0.0 0.00 0.00 0.00 80 1008.0
20260510063035 15 174 0.0 0.0 0.00 0.00 0.00 79 1008.2
20260510061535 16 156 0.0 0.0 0.00 0.00 0.00 78 1008.2
20260510060044 16 162 0.0 0.0 0.00 0.00 0.00 77 1008.2
20260510054541 16 284 0.0 0.0 0.00 0.00 0.00 76 1008.0
20260510053038 17 166 0.0 4.8 0.00 0.00 0.00 75 1008.0
20260510051535 17 268 3.2 8.0 0.00 0.00 0.00 74 1008.0
20260510050044 17 253 4.8 6.4 0.00 0.00 0.00 72 1008.0
20260510044532 18 261 0.0 4.8 0.00 0.00 0.00 71 1008.3
20260510043040 18 258 4.8 11.3 0.00 0.00 0.00 70 1008.1
20260510041541 18 240 6.4 11.3 0.00 0.00 0.00 70 1008.0
20260510040050 18 158 6.4 12.9 0.00 0.00 0.00 69 1007.9
20260510034542 18 201 8.0 16.1 0.00 0.00 0.00 68 1007.9
20260510033041 19 207 6.4 9.7 0.00 0.00 0.00 66 1007.7
20260510031540 19 211 6.4 12.9 0.00 0.00 0.00 64 1007.7
20260510030049 19 201 6.4 9.7 0.00 0.00 0.00 64 1007.7
20260510024534 20 165 6.4 9.7 0.00 0.00 0.00 62 1007.5
20260510023035 20 192 4.8 12.9 0.00 0.00 0.00 62 1007.4
20260510021538 20 192 3.2 9.7 0.00 0.00 0.00 61 1007.2
20260510020040 21 206 1.6 6.4 0.00 0.00 0.00 59 1007.1
20260510014538 21 184 0.0 6.4 0.00 0.00 0.00 58 1006.8
20260510013033 21 192 3.2 6.4 0.00 0.00 0.00 57 1006.5
20260510011546 21 155 1.6 8.0 0.00 0.00 0.00 56 1006.5
20260510010041 22 179 3.2 8.0 0.00 0.00 0.00 55 1006.4
20260510004542 22 175 1.6 6.4 0.00 0.00 0.00 54 1006.2
20260510003041 22 169 3.2 12.9 0.00 0.00 0.00 52 1006.1
20260510001543 23 212 6.4 12.9 0.00 0.00 0.00 51 1006.0
20260510000042 23 216 6.4 11.3 0.00 0.00 0.00 50 1005.8
20260509234543 23 201 6.4 12.9 0.00 0.00 0.00 49 1005.9
20260509233039 24 198 4.8 14.5 0.00 0.00 0.00 48 1005.9
20260509231542 24 165 8.0 20.9 0.00 0.00 0.00 47 1005.9
20260509230044 25 225 11.3 22.5 0.00 0.00 0.00 46 1005.8
20260509224542 25 205 6.4 16.1 0.00 0.00 0.00 46 1005.6
20260509223040 25 201 12.9 27.4 0.00 0.00 0.00 45 1005.7
20260509221538 24 232 11.3 19.3 0.00 0.00 0.00 46 1005.9
20260509220040 24 215 19.3 29.0 0.00 0.00 0.00 45 1005.8
20260509214540 25 219 11.3 19.3 0.00 0.00 0.00 46 1005.8
20260509213039 24 198 14.5 29.0 0.00 0.00 0.00 47 1005.8
20260509211535 24 169 8.0 19.3 0.00 0.00 0.00 46 1005.6
20260509210058 25 252 6.4 27.4 0.00 0.00 0.00 47 1005.5
20260509204541 25 122 6.4 25.7 0.00 0.00 0.00 48 1005.5
20260509203042 24 201 14.5 33.8 0.00 0.00 0.00 48 1005.5
20260509201540 24 190 11.3 29.0 0.00 0.00 0.00 50 1005.7
20260509200047 23 232 14.5 24.1 0.00 0.00 0.00 51 1006.0
20260509194542 23 244 12.9 29.0 0.00 0.00 0.00 50 1006.1
20260509193042 23 250 6.4 20.9 0.00 0.00 0.00 53 1006.3
20260509191541 22 223 8.0 22.5 0.00 0.00 0.00 56 1006.7
20260509190047 22 206 11.3 17.7 0.00 0.00 0.00 55 1006.8
20260509184546 22 224 14.5 24.1 0.00 0.00 0.00 56 1007.0
20260509183039 22 169 17.7 24.1 0.00 0.00 0.00 57 1007.2
20260509181551 22 250 12.9 27.4 0.00 0.00 0.00 56 1007.3
20260509180046 22 248 12.9 27.4 0.00 0.00 0.00 57 1007.5
20260509174541 22 236 12.9 22.5 0.00 0.00 0.00 56 1007.6
20260509173041 22 196 8.0 30.6 0.00 0.00 0.00 56 1007.5
20260509171543 21 210 16.1 30.6 0.00 0.00 0.00 57 1007.7
20260509170047 21 180 14.5 24.1 0.00 0.00 0.00 59 1007.9
20260509164543 20 234 16.1 25.7 0.00 0.00 0.00 58 1007.9
20260509163039 20 223 19.3 29.0 0.00 0.00 0.00 58 1008.0
20260509161537 21 252 16.1 29.0 0.00 0.00 0.00 57 1008.1